sat.trackr.live / text

‹ back to catalog

STARLINK-34818

NORAD 65238 · 2025-179D

PAYLOAD ACTIVE UNKNOWN

§ Identity

Operator
Country
US
Launch date
2025-08-18
Launch site
AFWTR
Launch vehicle
Mass (kg)
RCS (m²)

Purposes: comms

External: N2YO · Heavens-Above · Gunter

§ Orbital elements

Epoch: 2026-09-20T20:49:30.993312Z

Period
93.91 min
Inclination
97.2867°
Eccentricity
0.0001883
Mean motion
15.33443942 rev/d
Perigee alt
464.3 km
Apogee alt
466.8 km
Semi-major
6,843.7 km
B*
3.7264e-4
RAAN
303.1056°
Arg perigee
100.1301°
Mean anomaly
260.0154°
Rev number
6,109

§ Raw data

STARLINK-348181 65238U 25179D   26263.86771983  .00011974  00000+0  37264-3 0  99922 65238  97.2867 303.1056 0001883 100.1301 260.0154 15.33443942 61091

JSON: /api/v1/satellites/65238 · /tle

For live sub-satellite position, see the globe view (requires WebGL).

§ Visibility from observer

Set your observer location to see the next 7 days of passes ≥ 10°. The values pass through the URL so the page stays shareable.

No JS? Fill the form by hand. The geolocation button needs JavaScript.